[[{"header":{"parameterUnit":"m.s-1","parameterCategory":1,"la1":30.2991,"la2":30.254,"lo1":-89.0895,"lo2":-89.0444,"dy":0.0017,"dx":0.0017,"nx":28,"ny":28,"refTime":"2024-03-25T09:00:00:Z","depth":0,"parameterNumber":2,"parameterNumberName":"U-component_of_WINDS"},"data":[0,0,0,0,0,0,0,0,0,0,0,0,0,0,0,0,0,0,0,0,0,0,0,0,0,0,0,0,0,0,0,0,0,0,0,0,0,0,0,0,0,0,0,0,0,0,0,0,0,0,0,0,0,0,0,0,0,0,-4.0458,-4.046,0,-4.0633,-4.0635,-4.0637,-4.0697,-4.0696,-4.0695,-4.0695,-4.0869,-4.0874,-4.0879,0,0,0,0,0,0,0,0,0,0,0,0,0,-4.0172,-4.0177,-4.0458,-4.046,-4.0462,-4.0633,-4.0635,-4.0638,-4.0697,-4.0696,-4.0695,-4.0695,-4.0867,-4.0873,-4.088,0,0,0,0,0,0,0,0,0,0,0,0,0,-4.0316,-4.0178,-4.0458,-4.0513,-4.0519,-4.0632,-4.0635,-4.0638,-4.0697,-4.0696,-4.0695,-4.0694,-4.0865,-4.0873,-4.0881,-4.095,0,0,-4.0905,-4.0908,0,0,0,0,0,0,0,0,-4.0308,-4.0327,-4.0502,-4.0509,-4.0517,-4.0642,-4.0598,-4.0742,-4.0697,-4.0629,-4.0695,-4.0694,-4.0794,-4.0808,-4.0843,-4.0958,-4.0966,-4.0906,-4.091,-4.0914,-4.0916,0,0,0,0,0,0,0,-4.0298,-4.0319,-4.0527,-4.0505,-4.0514,-4.0528,-4.0547,-4.0626,-4.0715,-4.0635,-4.064,-4.066,-4.0798,-4.0835,-4.0847,-4.0968,-4.0905,-4.0912,-4.0917,-4.092,-4.115,-4.1151,0,0,0,0,0,0,-4.0279,-4.0311,-4.0522,-4.0532,-4.0408,-4.0533,-4.0555,-4.0603,-4.0715,-4.0731,-4.0661,-4.0662,-4.0822,-4.0838,-4.0853,-4.0943,-4.0914,-4.0921,-4.0926,-4.1149,-4.115,-4.1152,0,0,0,0,0,0,-4.0273,-4.0297,-4.0515,-4.0423,-4.0452,-4.054,-4.0593,-4.0607,-4.0644,-4.0734,-4.075,-4.0683,-4.0822,-4.0842,-4.0926,-4.0949,-4.0925,-4.0932,-4.1147,-4.1149,-4.1151,-4.112,0,0,0,0,0,0,-4.0264,-4.0295,-4.0323,-4.0423,-4.0456,-4.0585,-4.0594,-4.0611,-4.0658,-4.0662,-4.0759,-4.0774,-4.0822,-4.0914,-4.0934,-4.096,-4.0938,-4.1145,-4.1148,-4.115,-4.112,-4.1121,-4.1122,0,0,0,0,0,-4.0254,-4.0306,-4.0324,-4.0349,-4.0493,-4.0586,-4.0605,-4.0662,-4.066,-4.0688,-4.0746,-4.077,-4.0944,-4.0922,-4.0945,-4.0973,-4.1144,-4.1147,-4.115,-4.1119,-4.1121,-4.1122,0,0,0,0,0,0,-4.0203,-4.032,-4.0341,-4.0427,-4.0497,-4.0596,-4.0634,-4.0662,-4.0732,-4.0732,-4.0798,-4.0819,-4.0898,-4.0944,-4.0918,-4.1047,-4.1045,-4.1053,-4.1014,-4.1016,-4.1017,-4.1004,-4.0945,0,0,0,0,0,-4.0203,-4.027,-4.0368,-4.0434,-4.0468,-4.0545,-4.0587,-4.0625,-4.0699,-4.0728,-4.0792,-4.0862,-4.0932,-4.0977,-4.1046,-4.1127,-4.1149,-4.1158,-4.1159,-4.116,-4.1166,-4.1212,-4.1217,-4.1162,-4.1162,-4.1162,0,0,-4.0201,-4.0273,-4.0311,-4.0426,-4.0484,-4.0551,-4.0569,-4.0639,-4.0689,-4.0738,-4.0822,-4.0871,-4.0953,-4.1036,-4.1076,-4.1077,-4.1186,-4.1164,-4.1164,-4.1169,-4.1216,-4.1221,-4.1226,-4.1164,-4.1164,-4.1163,0,0,-4.0233,-4.0294,-4.0357,-4.0416,-4.0504,-4.0555,-4.057,-4.0666,-4.0702,-4.0787,-4.0826,-4.0886,-4.1005,-4.1062,-4.1107,-4.1162,-4.1187,-4.1183,-4.1189,-4.1234,-4.1238,-4.1242,-4.1262,-4.1268,-4.1188,-4.1188,-4.1188,0,-4.0219,-4.0323,-4.0385,-4.0454,-4.0503,-4.0553,-4.0617,-4.067,-4.0776,-4.0808,-4.0809,-4.0961,-4.102,-4.1117,-4.113,-4.1165,-4.1183,-4.1171,-4.1233,-4.1238,-4.1242,-4.1262,-4.1269,-4.1187,-4.1187,-4.1187,-4.1187,0,-4.0302,-4.0374,-4.0413,-4.0517,-4.0571,-4.0636,-4.0707,-4.0754,-4.0787,-4.0838,-4.0924,-4.0997,-4.1082,-4.1108,-4.1141,-4.121,-4.1209,-4.122,-4.122,-4.1246,-4.1265,-4.1273,-4.1185,-4.1186,-4.1186,-4.1186,0,0,-4.0305,-4.0444,-4.0457,-4.0505,-4.0608,-4.0664,-4.0731,-4.0817,-4.0856,-4.0927,-4.0985,-4.1086,-4.1099,-4.1149,-4.1189,-4.1228,-4.1267,-4.1235,-4.1238,-4.1238,-4.1348,-4.1338,-4.1346,-4.1285,-4.1286,-4.1288,-4.1341,0,-4.035,-4.0475,-4.0533,-4.0632,-4.0699,-4.0748,-4.0807,-4.0876,-4.0925,-4.0988,-4.1042,-4.1113,-4.1123,-4.1154,-4.1196,-4.1253,-4.129,-4.1251,-4.1338,-4.1341,-4.1316,-4.1356,-4.1346,-4.1393,-4.1349,-4.135,-4.1351,0,-4.0418,-4.0492,-4.0598,-4.0694,-4.0724,-4.0776,-4.086,-4.092,-4.0999,-4.1032,-4.1089,-4.1128,-4.12,-4.1196,-4.1296,-4.1268,-4.1307,-4.1341,-4.1344,-4.1354,-4.1347,-4.1366,-4.1409,-4.1416,-4.1364,-4.1363,-4.1362,0,-4.041,-4.0536,-4.0616,-4.0655,-4.0769,-4.0804,-4.0853,-4.0931,-4.0979,-4.1052,-4.1084,-4.1163,-4.1206,-4.1266,-4.1325,-4.1316,-4.142,-4.142,-4.1449,-4.1447,-4.1467,-4.1465,-4.1516,-4.1493,-4.1493,-4.1493,-4.1493,0,-4.0453,-4.0516,-4.0614,-4.0663,-4.0734,-4.0801,-4.0869,-4.0922,-4.0991,-4.105,-4.1097,-4.1151,-4.1226,-4.129,-4.1336,-4.1412,-4.1431,-4.1459,-4.1471,-4.1455,-4.1451,-4.1481,-4.1479,-4.1495,-4.1495,-4.1494,-4.1494,0,-4.0456,-4.0524,-4.0614,-4.0715,-4.0742,-4.079,-4.0876,-4.0925,-4.0978,-4.1052,-4.1073,-4.1155,-4.1233,-4.1298,-4.1399,-4.143,-4.1509,-4.1522,-4.1482,-4.1488,-4.1514,-4.151,-4.1585,-4.1598,-4.1566,-4.1567,-4.1567,0,-4.0479,-4.0528,-4.0635,-4.068,-4.0728,-4.0798,-4.0848,-4.0915,-4.0965,-4.106,-4.1097,-4.1178,-4.1247,-4.1368,-4.1436,-4.1513,-4.1529,-4.155,-4.1541,-4.1524,-4.1529,-4.1525,-4.1531,-4.155,-4.155,-4.155,-4.155,0,-4.0512,-4.0544,-4.0615,-4.0698,-4.0757,-4.0825,-4.0895,-4.0928,-4.1008,-4.1061,-4.1142,-4.1195,-4.13,-4.138,-4.1465,-4.1514,-4.1545,-4.1553,-4.1564,-4.1548,-4.1523,-4.1536,-4.1484,-4.1551,-4.155,-4.155,-4.155,-4.155,-4.0526,-4.0573,-4.0656,-4.0733,-4.0793,-4.0857,-4.0909,-4.0969,-4.1038,-4.1129,-4.1165,-4.1247,-4.1325,-4.1444,-4.1493,-4.1558,-4.1562,-4.1577,-4.1581,-4.1584,-4.1581,-4.1513,-4.1573,-4.1574,-4.1574,-4.1574,-4.1574,0,-4.0562,-4.0618,-4.0689,-4.0786,-4.0847,-4.0873,-4.0952,-4.1001,-4.1073,-4.1145,-4.1212,-4.1305,-4.1383,-4.1457,-4.1539,-4.1577,-4.1593,-4.1596,-4.1593,-4.1604,-4.1573,-4.1556,-4.1581,-4.1581,-4.1581,-4.1581,-4.1581,-4.1581,-4.0587,-4.0669,-4.071,-4.0821,-4.0877,-4.096,-4.1002,-4.1061,-4.1119,-4.1221,-4.1287,-4.1336,-4.1408,-4.1496,-4.1569,-4.1588,-4.1616,-4.1615,-4.1638,-4.1608,-4.1606,-4.1605,-4.1589,-4.162,-4.162,-4.1664,-4.1664,-4.1665]},{"header":{"parameterUnit":"m.s-1","parameterCategory":1,"la1":30.2991,"la2":30.254,"lo1":-89.0895,"lo2":-89.0444,"dy":0.0017,"dx":0.0017,"nx":28,"ny":28,"refTime":"2024-03-25T09:00:00:Z","depth":0,"parameterNumber":3,"parameterNumberName":"V-component_of_WINDS"},"data":[0,0,0,0,0,0,0,0,0,0,0,0,0,0,0,0,0,0,0,0,0,0,0,0,0,0,0,0,0,0,0,0,0,0,0,0,0,0,0,0,0,0,0,0,0,0,0,0,0,0,0,0,0,0,0,0,0,0,7.8899,7.8901,0,7.9055,7.9057,7.9059,7.9076,7.9075,7.9073,7.9072,7.9228,7.9234,7.9239,0,0,0,0,0,0,0,0,0,0,0,0,0,7.8615,7.862,7.8899,7.8901,7.8903,7.9055,7.9057,7.9059,7.9077,7.9075,7.9073,7.9071,7.9227,7.9233,7.924,0,0,0,0,0,0,0,0,0,0,0,0,0,7.8751,7.8621,7.8898,7.893,7.8934,7.9054,7.9057,7.906,7.9077,7.9075,7.9072,7.907,7.9224,7.9233,7.9241,7.934,0,0,7.9267,7.927,0,0,0,0,0,0,0,0,7.8743,7.8761,7.8923,7.8928,7.8933,7.9044,7.9014,7.9153,7.9078,7.9023,7.9072,7.9069,7.9169,7.9182,7.9216,7.9347,7.9354,7.9267,7.9273,7.9276,7.9279,0,0,0,0,0,0,0,7.8734,7.8755,7.896,7.8926,7.8932,7.8936,7.8953,7.9041,7.9107,7.9027,7.9029,7.9047,7.9171,7.9208,7.922,7.9356,7.9267,7.9275,7.928,7.9283,7.958,7.9582,0,0,0,0,0,0,7.8719,7.8747,7.8956,7.8965,7.8831,7.8943,7.8962,7.9011,7.9106,7.9118,7.9049,7.9048,7.9195,7.921,7.9225,7.935,7.9276,7.9284,7.9289,7.9577,7.958,7.9583,0,0,0,0,0,0,7.8713,7.8737,7.8949,7.8857,7.8884,7.895,7.9005,7.9015,7.9052,7.9123,7.9134,7.9075,7.9193,7.9213,7.9312,7.9356,7.9288,7.9295,7.9574,7.9578,7.9582,7.9598,0,0,0,0,0,0,7.8704,7.8735,7.8773,7.8857,7.8889,7.9034,7.9008,7.902,7.9067,7.9066,7.915,7.9161,7.9193,7.93,7.9321,7.9366,7.9302,7.957,7.9576,7.9581,7.9594,7.9602,7.961,0,0,0,0,0,7.8694,7.877,7.8775,7.88,7.8938,7.9036,7.9054,7.909,7.907,7.9109,7.9155,7.9159,7.9347,7.931,7.9333,7.9382,7.9568,7.9574,7.958,7.9591,7.9601,7.9609,0,0,0,0,0,0,7.8687,7.8781,7.8788,7.8893,7.8957,7.9039,7.9089,7.9099,7.9169,7.9165,7.9206,7.9225,7.9323,7.9362,7.9318,7.9484,7.9455,7.9467,7.9455,7.9465,7.9473,7.9462,7.9309,0,0,0,0,0,7.8698,7.877,7.8848,7.8934,7.8966,7.9022,7.9066,7.9089,7.9156,7.9182,7.9235,7.93,7.9374,7.9421,7.9493,7.96,7.9619,7.9645,7.9653,7.9659,7.9668,7.9731,7.9744,7.9604,7.9604,7.9604,0,0,7.872,7.8781,7.8824,7.8934,7.8986,7.906,7.9044,7.9123,7.9179,7.9194,7.9292,7.9333,7.9407,7.9511,7.956,7.9547,7.9712,7.9667,7.9671,7.9678,7.9739,7.9752,7.9764,7.9609,7.9608,7.9607,0,0,7.88,7.8852,7.8931,7.8984,7.9064,7.9102,7.9121,7.9203,7.9231,7.933,7.9344,7.9411,7.9537,7.9591,7.9634,7.9739,7.9745,7.976,7.9801,7.9862,7.9873,7.9883,7.9922,7.9935,7.977,7.977,7.977,0,7.8818,7.8931,7.897,7.9049,7.9098,7.9118,7.9198,7.9247,7.9346,7.938,7.9364,7.9526,7.9577,7.9695,7.9721,7.9755,7.9779,7.9751,7.9868,7.9878,7.9888,7.9927,7.9941,7.9771,7.9771,7.9771,7.9771,0,7.8951,7.9029,7.9083,7.918,7.9235,7.9314,7.9366,7.9416,7.9435,7.9475,7.9577,7.9639,7.9726,7.9755,7.9773,7.9877,7.9868,7.986,7.9832,7.9903,7.9939,7.9954,7.9774,7.9773,7.9772,7.9772,0,0,7.9029,7.9149,7.9168,7.9214,7.9305,7.9367,7.9448,7.9534,7.9578,7.9646,7.9716,7.9824,7.9819,7.9868,7.9893,7.9945,8.0027,7.9932,7.9934,7.9949,8.0149,8.0156,8.0172,8.0032,8.0035,8.0037,8.0144,0,7.9121,7.9267,7.9305,7.943,7.9504,7.9525,7.9596,7.966,7.97,7.9769,7.9812,7.9889,7.9874,7.9905,7.9958,8.0006,8.0068,7.9999,8.0099,8.0102,8.0081,8.0191,8.0197,8.0295,8.0158,8.0161,8.0162,0,7.9247,7.932,7.9453,7.9538,7.957,7.9633,7.9718,7.9783,7.9856,7.9882,7.9939,7.9959,8.0046,8.0013,8.0133,8.0085,8.0129,8.0158,8.0163,8.0175,8.0137,8.0207,8.0326,8.0342,8.0185,8.0183,8.0181,0,7.9294,7.9425,7.9523,7.9561,7.9661,7.9706,7.975,7.9821,7.9872,7.9945,7.9979,8.006,8.0105,8.0168,8.021,8.0182,8.0328,8.0298,8.0353,8.0352,8.0383,8.038,8.0512,8.0408,8.0408,8.0407,8.0407,0,7.9393,7.9474,7.9546,7.9605,7.9697,7.9741,7.9831,7.9875,7.9939,8.0008,8.003,8.0095,8.0146,8.0218,8.0251,8.0347,8.0367,8.039,8.0398,8.0389,8.0387,8.0419,8.0414,8.0411,8.041,8.041,8.0409,0,7.9461,7.9512,7.962,7.9707,7.9731,7.9795,7.987,7.993,7.9971,8.0059,8.0082,8.0146,8.0233,8.0281,8.0388,8.0411,8.0519,8.0522,8.0494,8.0498,8.0551,8.0546,8.071,8.0734,8.0611,8.0612,8.0613,0,7.9522,7.9585,7.968,7.9729,7.9774,7.9852,7.9905,7.9951,8.0005,8.0096,8.0145,8.0233,8.0305,8.0442,8.0498,8.0581,8.0588,8.064,8.0601,8.0591,8.0592,8.0588,8.0596,8.0647,8.0648,8.0649,8.065,0,7.9625,7.9648,7.9724,7.981,7.9873,7.9942,8.0011,8.0049,8.0107,8.0167,8.0256,8.0313,8.0424,8.0512,8.06,8.0645,8.0658,8.0662,8.0679,8.0671,8.0654,8.0666,8.0515,8.0658,8.0657,8.0656,8.0656,8.0656,7.9693,7.9752,7.9829,7.9913,7.997,8.0035,8.0096,8.0147,8.0222,8.0318,8.034,8.0435,8.051,8.063,8.0678,8.0753,8.0743,8.0767,8.0774,8.078,8.0783,8.0641,8.0768,8.0768,8.0768,8.0768,8.0768,0,7.98,7.9851,7.9929,8.0026,8.0093,8.01,8.0177,8.0233,8.0317,8.0385,8.0458,8.0562,8.0648,8.0712,8.08,8.0848,8.0857,8.087,8.0868,8.0878,8.0785,8.0763,8.0862,8.0862,8.0862,8.0862,8.0862,8.0862,7.9863,7.9964,7.9996,8.0126,8.0177,8.0271,8.0315,8.0375,8.0431,8.0547,8.0619,8.0661,8.0729,8.0823,8.0903,8.0919,8.0952,8.0965,8.0982,8.0894,8.0884,8.0875,8.0854,8.0971,8.0971,8.107,8.1071,8.1071]}]]